Location: Bothwell
(42.3833°S, 147.0000°E)
Time: 19:47:18
(UTC+11:00)

BEESAT - Pass Details

Date: 25 September 2022
Orbit: 699 x 706 km, 98.5° (Epoch: 25 November)

Event Time Altitude Azimuth Distance (km) Brightness Sun altitude
Exits shadow 18:48:42 - 62° (ENE) 2,371 ? -7.7°
Reaches altitude 10° 18:49:18 10° 67° (ENE) 2,186 ? -7.8°
Maximum altitude 18:52:56 22° 116° (ESE) 1,540 ? -8.4°
Drops below altitude 10° 18:56:36 10° 165° (SSE) 2,210 ? -9.1°
Sets 18:59:18 0° 180° (S) 3,139 ? -9.6°
